CZ-6A DEB, 54282

Orbit data source: Space-Track

CZ-6A DEB, 54282 is space debris in SSO originally from a launch on Fri, 11 Nov 2022 UTC launched from the Taiyaun Space Center, China (TSC). Debris objects in space refer to the collection of defunct objects orbiting the Earth. Examples of debris include non-operational satellites, rocket bodies, and fragments generated from explosions, collisions, or faulty payload assembly.

Loading next visibility...
Identifier
54282, 2022-151Z
Orbit
SSO
Country
Flag of CNCN / PRC
Related business
Manufacturer
SAST
Mission
Spacecraft
Bus & Motor
Unknown
Mass
Unknown
Launch date (UTC)
2022-11-11 (4 years ago)
Launch vehicle
Unknown
Launch site
Taiyaun Space Center, China (TSC)
Object type
Payload
Rocket body
Debris
Shape & HBR
Unknown shape, 0.1 m
Radar Cross Section
Medium (>0.1 m² and <1 m²)

Expand to show TLE details & history
Last TLE update: 2 days ago

TLE from 2 days ago
0 CZ-6A DEB
1 54282U 22151Z   26171.12623863  .00016932  00000-0  22177-2 0  9992
2 54282  98.5777 226.9672 0050797 277.4939  82.0501 14.79532597190300
Epoch: 2026-06-20T03:01Z
TLE epoch observation values (Epoch: 2026-06-20T03:01:47.017Z)
Latitude
-0.00005°
Longitude
-86.82404°
Altitude
629.052 km
Speed
7.547 km/s
True Right ascension
15h 07m 52s
True Declination
0° 00' 00"
Sunlit
Object was in full shadow at epoch
Visualization orbit readout
Latitude
Unknown
Longitude
Unknown
Altitude
Unknown
Speed
Unknown
Apparent Right ascension
Unknown
Apparent Declination
Unknown
Sunlit
N/A
Visualization observer readout
Local Sidereal Time
21:39:47
Azimuth
Unknown
Elevation
Unknown
Doppler factor
Unknown
Orbital elements
Apogee altitude
663.461 km
Perigee altitude
592.284 km
Semi-major axis
7,006.01 km
Eccentricity
0.00508
Inclination
98.5777°
RAAN
226.9672°
Arg. of periapsis
277.4939°
True anomaly
82.62709°
Mean anomaly
82.0501°
Eccentric anomaly
82.33855°
Mean motion
3.70115 °/min
Orbital period
97.27 mins
BSTAR
0.0022177
Loading maneuver chart data...
Computing Atmospheric mass density...
Loading historical data...
Loading historical data...
Loading historical data...
Loading historical data...
Loading historical data...
Loading historical data...
Loading historical data...

Documentation

Showing up to 5 results
|